Overview Statistics Trail Chart Weather Telemetry Raw packets
 

This is the latest recevied weather packets stored in our database for station/object SV9TNF-56. If no packets are shown the sender has not sent any weather packets the latest 10 day(s).

<< 9 10 11 12 13 14 15 >>
Time Temp. Humidity Pressure Rain* Wind** Luminosity Snow
1788589655 25° C 51% 1012.2 hPa 0 mm 35.32 m/s, 282° - -
1788589355 25° C 51% 1012.5 hPa 0 mm 36.21 m/s, 233° - -
1788589055 25° C 50% 1012.2 hPa 0 mm 33.08 m/s, 288° - -
1788588755 25° C 50% 1012.2 hPa 0 mm 31.74 m/s, 258° - -
1788588455 25° C 50% 1011.9 hPa 0 mm 16.99 m/s, 192° - -
1788588155 24.44° C 54% 1011.9 hPa 0 mm 26.82 m/s, 263° - -
1788587855 23.89° C 61% 1011.9 hPa 0 mm 26.82 m/s, 240° - -
1788587555 24.44° C 71% 1012.5 hPa 0 mm 24.14 m/s, 265° - -
1788587255 24.44° C 71% 1012.2 hPa 0 mm 22.8 m/s, 294° - -
1788586955 24.44° C 71% 1011.9 hPa 0 mm 24.59 m/s, 270° - -
1788586654 24.44° C 70% 1011.9 hPa 0 mm 16.99 m/s, 287° - -
1788586355 24.44° C 69% 1011.9 hPa 0 mm 23.25 m/s, 0° - -
1788586054 24.44° C 67% 1011.9 hPa 0 mm 27.27 m/s, 323° - -
1788585754 24.44° C 66% 1011.9 hPa 0 mm 43.81 m/s, 275° - -
1788585454 24.44° C 66% 1011.9 hPa 0 mm 38.89 m/s, 228° - -
1788585154 24.44° C 66% 1011.9 hPa 0 mm 26.82 m/s, 253° - -
1788584854 24.44° C 67% 1011.9 hPa 0 mm 41.57 m/s, 240° - -
1788584554 24.44° C 67% 1011.9 hPa 0 mm 26.38 m/s, 228° - -
1788584254 23.89° C 68% 1011.9 hPa 0 mm 49.62 m/s, 275° - -
1788583953 23.89° C 69% 1011.9 hPa 0 mm 36.21 m/s, 264° - -
1788583654 23.89° C 70% 1011.5 hPa 0 mm 28.61 m/s, 294° - -
1788583354 23.89° C 69% 1011.9 hPa 0 mm 28.61 m/s, 324° - -
1788583053 23.89° C 69% 1011.9 hPa 0 mm 28.61 m/s, 282° - -
1788582753 23.89° C 71% 1011.9 hPa 0 mm 22.8 m/s, 276° - -
1788582453 23.89° C 71% 1011.5 hPa 0 mm 12.52 m/s, 250° - -

* Rain latest hour (hover to see other rain measurements)
** Current wind speed in m/s (hover to see current wind gust speed)